STARLINK-1741, 46567

Orbit data source: Space-Track

STARLINK-1741, 46567 is a payload satellite owned by SpaceX/Seattle (US) in LEO that was launched on Tue, 06 Oct 2020 UTC via an FALCON 9 launch vehicle from the Air Force Eastern Test Range (AFETR). Payload-class satellites include a variety of spacecraft equipped with specific instruments for various scientific and technological missions. These include communications satellites like Starlink; space stations such as the ISS; scientific satellites like the Hubble; Earth observation satellites from companies like Planet Labs, Umbra, and HawkEye 360; GPS; miniature CubeSats for education and research; and military/defense satellites.

Loading next visibility...
Identifier
46567, 2020-070AM
Orbit
LEO
Country
Flag of USUS
Related business
Manufacturer
SpaceX/Seattle
Mission
Operational Commercial Communications
Bus & Motor
STARLINK, Unknown motor
Mass
260 kg wet, ~248 kg dry
Launch date (UTC)
2020-10-06 (5 years ago)
Launch vehicle
FALCON 9
Launch site
Air Force Eastern Test Range (AFETR)
Object type
Payload
Rocket body
Debris
Shape & HBR
Box + 1 Pan, 4.4 m
Radar Cross Section
13.562 m², Large (>1 m²)

Expand to show TLE details & history
Last TLE update: 20 hours ago

TLE from 20 hours ago
0 STARLINK-1741
1 46567U 20070AM  25259.29274751  .00002158  00000-0  16375-3 0  9998
2 46567  53.0523 219.5160 0001397  96.2113 263.9035 15.06397857273500
Epoch: 2025-09-16T07:01Z
TLE epoch observation values (Epoch: 2025-09-16T07:01:33.384Z)
Latitude
-0.00005°
Longitude
118.64173°
Altitude
548.2 km
Speed
7.589 km/s
True Right ascension
14h 38m 03s
True Declination
0° 00' 00"
Sunlit
Object was in daylight at epoch
Visualization orbit readout
Latitude
Unknown
Longitude
Unknown
Altitude
Unknown
Speed
Unknown
Apparent Right ascension
Unknown
Apparent Declination
Unknown
Sunlit
N/A
Visualization observer readout
Local Sidereal Time
19:45:25
Azimuth
Unknown
Elevation
Unknown
Doppler factor
Unknown
Orbital elements
Apogee altitude
548.457 km
Perigee altitude
546.522 km
Semi-major axis
6,925.626 km
Eccentricity
0.00014
Inclination
53.0523°
RAAN
219.516°
Arg. of periapsis
96.2113°
True anomaly
263.88758°
Mean anomaly
263.9035°
Eccentric anomaly
263.89554°
Mean motion
3.76578 °/min
Orbital period
95.6 mins
BSTAR
0.00016375
Loading maneuver chart data...
Computing Atmospheric mass density...
Loading historical data...
Loading historical data...
Loading historical data...
Loading historical data...
Loading historical data...
Loading historical data...
Loading historical data...

Documentation

Showing up to 5 results
|